Location: Newark
(52.4787°S, 179.0532°W)
Time: 17:00:40
(UTC+00:00)

Explorer 7 - All Passes

Search period start: 13 November 2019 00:00
Search period end: 23 November 2019 00:00
Orbit: 485 x 680 km, 50.3° (Epoch: 13 November)

Date Brightness Start Highest point End Pass type
(mag) Time Alt. Az. Time Alt. Az. Time Alt. Az.
13 Nov - 02:46:37 10° NW 02:50:31 32° NNE 02:54:39 10° E daylight
13 Nov - 04:26:14 10° WNW 04:30:42 64° N 04:35:25 10° E daylight
13 Nov - 06:06:34 10° W 06:11:10 61° N 06:15:58 10° ENE daylight
13 Nov - 07:47:11 10° W 07:51:21 30° NNW 07:55:38 10° NNE daylight
14 Nov - 01:13:29 10° NNE 01:15:40 14° NE 01:17:55 10° ENE daylight
14 Nov - 02:51:14 10° NW 02:55:19 41° NNE 02:59:42 10° E daylight
14 Nov - 04:31:09 10° W 04:35:38 68° N 04:40:23 10° E daylight
14 Nov - 06:11:32 10° W 06:16:03 53° NNW 06:20:48 10° ENE daylight
14 Nov - 07:52:23 10° W 07:56:06 23° NW 07:59:55 10° NNE daylight
15 Nov - 01:17:16 10° N 01:20:19 19° NE 01:23:30 10° E daylight
15 Nov - 02:55:58 10° WNW 03:00:11 50° NNE 03:04:41 10° E daylight
15 Nov - 04:36:04 10° W 04:40:34 68° N 04:45:20 10° E daylight
15 Nov - 06:16:31 10° W 06:20:56 44° NNW 06:25:33 10° NE daylight
15 Nov - 07:57:47 10° W 08:00:48 17° NW 08:03:52 10° N daylight
16 Nov - 01:21:30 10° NNW 01:25:01 26° NNE 01:28:46 10° E daylight
16 Nov - 03:00:47 10° WNW 03:05:04 59° NNE 03:09:39 10° E daylight
16 Nov - 04:41:01 10° W 04:45:30 65° N 04:50:15 10° ENE daylight
16 Nov - 06:21:32 10° W 06:25:46 35° NNW 06:30:10 10° NE daylight
16 Nov - 08:03:51 10° WNW 08:05:26 11° NW 08:07:02 10° NNW daylight
17 Nov - 01:25:58 10° NW 01:29:47 34° NNE 01:33:52 10° E daylight
17 Nov - 03:05:40 10° WNW 03:09:59 65° N 03:14:37 10° E daylight
17 Nov - 04:45:58 10° W 04:50:25 58° NNW 04:55:07 10° ENE daylight
17 Nov - 06:26:38 10° W 06:30:33 27° NNW 06:34:37 10° NNE daylight
17 Nov - 23:52:34 10° N 23:54:55 15° NE 23:57:19 10° ENE daylight
18 Nov - 01:30:37 10° NW 01:34:37 43° NNE 01:38:53 10° E daylight
18 Nov - 03:10:34 10° W 03:14:55 68° N 03:19:33 10° E daylight
18 Nov - 04:50:56 10° W 04:55:19 49° NNW 04:59:55 10° NE daylight
18 Nov - 06:31:52 10° W 06:35:18 20° NW 06:38:49 10° N daylight
18 Nov - 23:56:30 10° NNW 23:59:34 20° NE 00:02:48 10° E daylight
19 Nov - 01:35:22 10° WNW 01:39:28 52° NNE 01:43:52 10° E daylight
19 Nov - 03:15:30 10° W 03:19:51 67° N 03:24:29 10° ENE daylight
19 Nov - 04:55:56 10° W 05:00:11 40° NNW 05:04:37 10° NE daylight
19 Nov - 06:37:26 10° WNW 06:39:59 14° NW 06:42:33 10° N daylight
20 Nov - 00:00:48 10° NNW 00:04:18 27° NNE 00:08:00 10° E daylight
20 Nov - 01:40:12 10° WNW 01:44:22 60° N 01:48:50 10° E daylight
20 Nov - 03:20:27 10° W 03:24:46 62° N 03:29:23 10° ENE daylight
20 Nov - 05:00:58 10° W 05:04:59 32° NNW 05:09:11 10° NNE daylight
20 Nov - 22:28:35 10° NNE 22:29:32 11° NE 22:30:29 10° ENE daylight
21 Nov - 00:05:19 10° NW 00:09:05 36° NNE 00:13:05 10° E daylight
21 Nov - 01:45:05 10° WNW 01:49:17 65° N 01:53:47 10° E daylight
21 Nov - 03:25:24 10° W 03:29:41 54° NNW 03:34:14 10° ENE daylight
21 Nov - 05:06:07 10° W 05:09:46 24° NNW 05:13:33 10° NNE daylight
21 Nov - 22:31:42 10° N 22:34:10 16° NE 22:36:42 10° ENE daylight
22 Nov - 00:10:00 10° NW 00:13:55 45° NNE 00:18:05 10° E daylight
22 Nov - 01:50:01 10° W 01:54:13 67° N 01:58:43 10° E daylight
22 Nov - 03:30:22 10° W 03:34:34 45° NNW 03:39:00 10° NE daylight
22 Nov - 05:11:27 10° W 05:14:29 18° NW 05:17:36 10° N daylight
22 Nov - 22:35:44 10° NNW 22:38:50 22° NE 22:42:05 10° E daylight
